Buckeburg Airport ETHB

Flugplatz Daten

Name: Buckeburg Airport

Ident: ETHB

Lat: 52,2784996

Long: 9,082169533

Platzhöhe: 230 ft

IataCode:

City:

Metar

2022/08/15 19:20
ETHB 151920Z 21004KT 9999 BKN140 BKN280 22/15 Q1005 BLU BLU

Taf

Gewünschte Webcam nicht vorhanden? Dann fügen Sie eine hinzu. Sie wird dann so schnell wie möglich freigeschaltet
Url: Title: